LB9CG Weather Reports


time (UTC)temp
F
wind
direction
speed
knots
gust
knots
rain 1hr
in
rain 24hr
in
rain mn
in
humidity
%
barometer
mb
20260509234037 43 180 2.6 7.8 0.00 0.00 0.00 81 1010.4
20260509233017 43 158 3.5 8.7 0.00 0.00 0.00 81 1010.5
20260509232017 43 180 2.6 9.6 0.00 0.00 0.00 81 1010.7
20260509231037 43 158 3.5 8.7 0.00 0.00 0.00 81 1010.8
20260509230017 43 158 1.7 5.2 0.00 0.00 0.00 83 1010.8
20260509225017 43 158 1.7 7.0 0.00 0.00 0.00 83 1010.9
20260509224017 43 135 2.6 6.1 0.00 0.00 0.00 83 1011.1
20260509223017 43 135 1.7 5.2 0.00 0.00 0.00 83 1011.2
20260509222017 43 203 2.6 10.4 0.00 0.00 0.00 83 1011.3
20260509221017 43 225 3.5 8.7 0.00 0.00 0.00 83 1011.3
20260509220017 43 158 1.7 7.0 0.00 0.00 0.00 84 1011.3
20260509215057 43 135 1.7 5.2 0.00 0.00 0.00 84 1011.5
20260509214037 43 225 1.7 4.3 0.00 0.00 0.00 84 1011.6
20260509213017 43 90 0.9 3.5 0.00 0.00 0.00 84 1011.5
20260509212017 43 135 1.7 5.2 0.00 0.00 0.00 83 1011.6
20260509211017 43 158 1.7 4.3 0.00 0.00 0.00 84 1011.6
20260509210017 43 135 1.7 4.3 0.00 0.00 0.00 84 1011.8
20260509205017 43 158 1.7 4.3 0.00 0.00 0.00 84 1012.0
20260509204017 43 135 1.7 4.3 0.00 0.00 0.00 84 1011.9
20260509203017 42 225 0.9 2.6 0.00 0.00 0.00 85 1012.0
20260509202037 42 225 0.9 3.5 0.00 0.00 0.00 85 1012.1
20260509201037 43 158 1.7 5.2 0.00 0.00 0.00 84 1012.1
20260509200017 43 225 0.9 5.2 0.00 0.00 0.00 84 1012.1
20260509195017 43 158 2.6 6.1 0.00 0.00 0.00 84 1012.1
20260509194037 43 135 2.6 6.1 0.00 0.00 0.00 84 1012.2
20260509193017 43 158 0.9 3.5 0.00 0.00 0.00 83 1012.4
20260509192017 43 158 1.7 4.3 0.00 0.00 0.00 83 1012.4
20260509191017 43 135 1.7 5.2 0.00 0.00 0.00 84 1012.5
20260509190017 43 135 1.7 5.2 0.00 0.00 0.00 85 1012.5
20260509185037 43 135 1.7 4.3 0.00 0.00 0.00 86 1012.5
20260509184017 43 158 0.9 3.5 0.00 0.00 0.00 88 1012.5
20260509183037 42 158 0.9 3.5 0.00 0.00 0.00 89 1012.5
20260509182017 42 135 0.9 2.6 0.00 0.00 0.00 88 1012.6
20260509181017 42 113 0.9 3.5 0.00 0.00 0.00 88 1012.6
20260509180017 42 135 0.9 3.5 0.00 0.00 0.00 89 1012.7
20260509175017 42 158 1.7 4.3 0.00 0.00 0.00 88 1012.9
20260509174016 42 135 2.6 5.2 0.00 0.00 0.00 89 1012.9
20260509173017 42 225 0.9 3.5 0.00 0.00 0.00 89 1013.1
20260509172016 42 135 1.7 5.2 0.00 0.00 0.00 88 1013.3
20260509171016 42 135 2.6 4.3 0.00 0.00 0.00 88 1013.4
20260509170017 42 135 1.7 7.0 0.00 0.00 0.00 88 1013.5
20260509165017 42 158 1.7 5.2 0.00 0.00 0.00 88 1013.6
20260509164016 42 135 1.7 4.3 0.00 0.00 0.00 88 1013.7
20260509163016 42 225 0.9 4.3 0.00 0.00 0.00 89 1013.9
20260509162017 42 158 2.6 7.0 0.00 0.00 0.00 90 1013.9
20260509161017 42 225 1.7 6.1 0.00 0.00 0.00 91 1014.1
20260509160017 42 248 0.9 3.5 0.00 0.00 0.00 92 1014.0
20260509155036 43 158 0.9 2.6 0.00 0.00 0.00 92 1014.1
20260509154017 43 225 1.7 7.0 0.00 0.00 0.00 91 1014.0
20260509153016 44 158 1.7 9.6 0.00 0.00 0.00 91 1014.0
20260509152036 44 158 0.9 1.7 0.00 0.00 0.00 92 1013.9
20260509151016 44 293 0.9 3.5 0.00 0.00 0.00 91 1013.8
20260509150016 45 293 0.9 1.7 0.00 0.00 0.00 91 1013.8
20260509145016 45 270 0.9 2.6 0.00 0.00 0.00 91 1013.8
20260509144016 45 293 0.9 2.6 0.00 0.00 0.00 90 1013.8
20260509143016 45 293 2.6 6.1 0.00 0.00 0.00 89 1013.8
20260509142016 46 270 1.7 5.2 0.00 0.00 0.00 88 1013.8
20260509141016 46 293 2.6 7.0 0.00 0.00 0.00 87 1013.8
20260509140016 47 293 2.6 7.0 0.00 0.00 0.00 85 1013.8
20260509135036 47 293 2.6 7.8 0.00 0.00 0.00 84 1013.7
20260509134016 48 293 0.9 4.3 0.00 0.00 0.00 85 1013.5
20260509133037 48 293 1.7 4.3 0.00 0.00 0.00 82 1013.4
20260509132016 49 293 3.5 6.1 0.00 0.00 0.00 78 1013.4
20260509131016 50 293 3.5 7.8 0.00 0.00 0.00 76 1013.3
20260509130016 52 293 1.7 4.3 0.00 0.00 0.00 72 1013.2
20260509125016 53 158 2.6 7.0 0.00 0.00 0.00 61 1013.3
20260509124016 53 158 2.6 6.1 0.00 0.00 0.00 61 1013.3
20260509123016 53 135 1.7 4.3 0.00 0.00 0.00 62 1013.3
20260509122016 53 135 1.7 5.2 0.00 0.00 0.00 63 1013.4
20260509121016 53 135 4.3 8.7 0.00 0.00 0.00 61 1013.4
20260509120016 54 135 2.6 5.2 0.00 0.00 0.00 61 1013.5
20260509115036 54 135 1.7 4.3 0.00 0.00 0.00 62 1013.6
20260509114016 53 135 2.6 4.3 0.00 0.00 0.00 61 1013.7
20260509113016 53 135 1.7 4.3 0.00 0.00 0.00 64 1013.8
20260509112016 53 135 1.7 2.6 0.00 0.00 0.00 69 1014.0
20260509111016 52 135 1.7 3.5 0.00 0.00 0.00 71 1014.2
20260509110016 53 0.0 0.9 0.00 0.00 0.00 69 1014.2
20260509105016 53 0.0 0.9 0.00 0.00 0.00 69 1014.3
20260509104016 53 0.0 0.9 0.00 0.00 0.00 69 1014.3
20260509103016 53 0.0 0.9 0.00 0.00 0.00 71 1014.4
20260509102016 52 293 1.7 3.5 0.00 0.00 0.00 69 1014.4
20260509101016 53 293 1.7 5.2 0.00 0.00 0.00 69 1014.5
20260509100016 52 293 2.6 5.2 0.00 0.00 0.00 69 1014.5
20260509095016 52 293 1.7 5.2 0.00 0.00 0.00 69 1014.5
20260509094016 53 293 2.6 5.2 0.00 0.00 0.00 68 1014.6
20260509093016 53 293 2.6 7.0 0.00 0.00 0.00 68 1014.6
20260509092018 52 293 3.5 5.2 0.00 0.00 0.00 70 1014.7
20260509091015 52 293 3.5 6.1 0.00 0.00 0.00 69 1014.7
20260509090016 53 293 1.7 7.0 0.00 0.00 0.00 68 1014.7
20260509085016 53 270 0.9 3.5 0.00 0.00 0.00 64 1014.7
20260509084015 52 135 0.9 2.6 0.00 0.00 0.00 63 1014.7
20260509083036 51 158 0.9 2.6 0.00 0.00 0.00 63 1014.8
20260509082016 51 135 0.9 4.3 0.00 0.00 0.00 64 1014.8
20260509081036 51 225 1.7 6.1 0.00 0.00 0.00 63 1014.8
20260509080036 52 158 0.9 4.3 0.00 0.00 0.00 66 1014.7
20260509075016 52 225 1.7 5.2 0.00 0.00 0.00 64 1014.6
20260509074036 52 135 1.7 3.5 0.00 0.00 0.00 64 1014.5
20260509073015 52 135 3.5 6.1 0.00 0.00 0.00 63 1014.4
20260509072015 52 135 2.6 4.3 0.00 0.00 0.00 63 1014.4
20260509071015 52 135 3.5 7.0 0.00 0.00 0.00 61 1014.4
20260509070015 52 135 3.5 5.2 0.00 0.00 0.00 61 1014.4
20260509065015 52 113 2.6 5.2 0.00 0.00 0.00 61 1014.3
20260509064015 52 135 1.7 5.2 0.00 0.00 0.00 61 1014.4
20260509063015 52 158 2.6 5.2 0.00 0.00 0.00 60 1014.4
20260509062015 52 135 2.6 5.2 0.00 0.00 0.00 61 1014.5
20260509061055 51 135 2.6 4.3 0.00 0.00 0.00 61 1014.5
20260509060016 51 135 2.6 5.2 0.00 0.00 0.00 61 1014.6
20260509055015 51 135 1.7 4.3 0.00 0.00 0.00 63 1014.6
20260509054015 51 135 3.5 6.1 0.00 0.00 0.00 62 1014.6
20260509053036 51 135 1.7 4.3 0.00 0.00 0.00 59 1014.6
20260509052015 51 135 1.7 4.3 0.00 0.00 0.00 59 1014.5
20260509051015 50 270 0.9 1.7 0.00 0.00 0.00 62 1014.5
20260509050015 49 315 0.9 3.5 0.00 0.00 0.00 61 1014.5
20260509045015 50 0.0 1.7 0.00 0.00 0.00 63 1014.6
20260509044015 49 68 0.9 3.5 0.00 0.00 0.00 63 1014.6
20260509043015 49 68 0.9 2.6 0.00 0.00 0.00 64 1014.7
20260509042015 49 90 1.7 7.0 0.00 0.00 0.00 67 1014.7
20260509041024 47 0.0 1.7 0.00 0.00 0.00 70 1014.8
20260509040017 47 338 0.9 3.5 0.00 0.00 0.00 71 1014.8
20260509035017 47 68 0.9 4.3 0.00 0.00 0.00 74 1014.7
20260509034037 45 68 1.7 5.2 0.00 0.00 0.00 77 1014.8
20260509033017 44 293 0.9 3.5 0.00 0.00 0.00 81 1015.1
20260509032017 44 0.0 0.9 0.00 0.00 0.00 82 1015.2
20260509031017 44 293 0.9 2.6 0.00 0.00 0.00 81 1015.4
20260509030017 44 0.0 0.0 0.00 0.00 0.00 81 1015.6
20260509025017 44 0.0 0.0 0.00 0.00 0.00 81 1015.8
20260509024017 44 0.0 0.0 0.00 0.00 0.00 80 1015.9
20260509023017 44 0.0 0.0 0.00 0.00 0.00 79 1015.8
20260509022017 44 0.0 0.9 0.00 0.00 0.00 79 1015.9
20260509021017 44 0.0 0.9 0.00 0.00 0.00 79 1016.0
20260509020037 45 0.0 0.0 0.00 0.00 0.00 75 1016.0
20260509015017 45 0.0 0.9 0.00 0.00 0.00 76 1016.0
20260509014037 45 0.0 0.9 0.00 0.00 0.00 77 1016.1
20260509013017 45 0.0 0.9 0.00 0.00 0.00 76 1016.1
20260509012018 46 203 0.9 2.6 0.00 0.00 0.00 75 1016.2
20260509011017 46 0.0 0.9 0.00 0.00 0.00 78 1016.3
20260509010017 44 23 1.7 6.1 0.00 0.00 0.00 81 1016.1
20260509005017 43 0.0 0.9 0.00 0.00 0.00 82 1015.9
20260509004017 42 0.0 0.9 0.00 0.00 0.00 86 1015.9
20260509003017 42 0.0 0.0 0.00 0.00 0.00 88 1015.9
20260509002017 42 0.0 0.0 0.00 0.00 0.00 87 1015.9
20260509001017 42 0.0 0.0 0.00 0.00 0.00 88 1015.8
20260509000017 42 0.0 0.0 0.00 0.00 0.00 87 1015.7
20260508235016 42 0.0 0.0 0.00 0.00 0.00 87 1015.7